GW1401 Weather Reports


Display with metric or nautical units.
time (UTC)temp
F
wind
direction
speed
MPH
gust
MPH
rain 1hr
in
rain 24hr
in
rain mn
in
humidity
%
barometer
mb
20260904050918 75 119 0.0 0.0 0.00 0.00 0.00 97 1019.2
20260904050414 75 119 0.0 0.0 0.00 0.00 0.00 97 1019.2
20260904045914 75 119 0.0 0.0 0.00 0.00 0.00 97 1019.1
20260904045410 75 119 0.0 0.0 0.00 0.00 0.00 97 1019.3
20260904044909 75 119 0.0 0.0 0.00 0.00 0.00 96 1019.1
20260904044406 75 119 0.0 0.0 0.00 0.00 0.00 96 1019.1
20260904043901 75 119 0.0 0.0 0.00 0.00 0.00 96 1019.3
20260904043358 75 123 0.0 0.0 0.00 0.00 0.00 96 1018.9
20260904042853 75 122 0.0 0.0 0.00 0.00 0.00 96 1019.0
20260904042349 75 123 0.0 0.0 0.00 0.00 0.00 95 1019.3
20260904041844 76 117 0.0 0.0 0.00 0.00 0.00 95 1019.1
20260904041340 76 122 0.0 0.0 0.00 0.00 0.00 95 1019.1
20260904040836 76 125 0.0 0.0 0.00 0.00 0.00 95 1019.2
20260904040330 76 123 0.0 1.0 0.00 0.00 0.00 95 1019.2
20260904035827 76 120 0.0 0.0 0.00 0.00 0.00 95 1019.0
20260904035323 76 120 0.0 0.0 0.00 0.00 0.00 95 1019.0
20260904034821 76 120 0.0 0.0 0.00 0.00 0.00 94 1019.1
20260904034317 76 120 0.0 0.0 0.00 0.00 0.00 94 1019.1
20260904033813 76 120 0.0 0.0 0.00 0.00 0.00 94 1019.3
20260904033309 76 120 0.0 0.0 0.00 0.00 0.00 94 1019.2
20260904032804 77 120 0.0 0.0 0.00 0.00 0.00 93 1019.3
20260904032259 77 120 0.0 0.0 0.00 0.00 0.00 93 1019.3
20260904031753 77 120 0.0 0.0 0.00 0.00 0.00 93 1019.3
20260904031249 77 120 0.0 0.0 0.00 0.00 0.00 93 1019.3
20260904030744 77 119 0.0 0.0 0.00 0.00 0.00 92 1019.5
20260904030239 77 120 0.0 0.0 0.00 0.00 0.00 92 1019.4
20260904025736 77 102 0.0 1.0 0.00 0.00 0.00 92 1019.2
20260904025230 77 117 0.0 0.0 0.00 0.00 0.00 91 1019.3
20260904024720 77 117 0.0 0.0 0.00 0.00 0.00 91 1019.2
20260904024215 77 117 0.0 0.0 0.00 0.00 0.00 91 1019.2
20260904023712 78 117 0.0 0.0 0.00 0.00 0.00 90 1019.1
20260904023207 78 117 0.0 0.0 0.00 0.00 0.00 90 1019.3
20260904022707 78 117 0.0 0.0 0.00 0.00 0.00 90 1019.2
20260904022203 78 117 0.0 0.0 0.00 0.00 0.00 89 1019.2
20260904021654 78 116 0.0 0.0 0.00 0.00 0.00 89 1019.3
20260904021148 78 117 0.0 0.0 0.00 0.00 0.00 88 1019.3
20260904020645 79 117 0.0 0.0 0.00 0.00 0.00 88 1019.2
20260904020138 79 117 0.0 0.0 0.00 0.00 0.00 87 1019.2
20260904015638 79 117 0.0 0.0 0.00 0.00 0.00 87 1019.2
20260904015137 79 117 0.0 0.0 0.00 0.00 0.00 87 1019.2
20260904014636 79 117 0.0 0.0 0.00 0.00 0.00 87 1019.2
20260904014132 80 117 0.0 0.0 0.00 0.00 0.00 86 1019.2
20260904013629 80 117 0.0 0.0 0.00 0.00 0.00 86 1019.1
20260904013124 80 117 0.0 0.0 0.00 0.00 0.00 85 1019.0
20260904012620 80 117 0.0 0.0 0.00 0.00 0.00 85 1019.0
20260904012119 80 117 0.0 0.0 0.00 0.00 0.00 84 1019.0
20260904011618 80 117 0.0 0.0 0.00 0.00 0.00 83 1019.1
20260904011114 81 117 0.0 0.0 0.00 0.00 0.00 83 1018.9
20260904010609 81 117 0.0 0.0 0.00 0.00 0.00 82 1018.8
20260904010105 81 117 0.0 0.0 0.00 0.00 0.00 80 1018.9
20260904005600 82 117 0.0 0.0 0.00 0.00 0.00 80 1018.7
20260904005055 82 117 0.0 0.0 0.00 0.00 0.00 79 1018.6
20260904004551 82 117 0.0 0.0 0.00 0.00 0.00 77 1018.5
20260904004046 83 117 0.0 0.0 0.00 0.00 0.00 75 1018.6
20260904003542 84 117 0.0 0.0 0.00 0.00 0.00 73 1018.5
20260904003037 84 117 0.0 0.0 0.00 0.00 0.00 72 1018.3
20260904002533 85 117 0.0 0.0 0.00 0.00 0.00 72 1018.3
20260904002032 85 117 0.0 0.0 0.00 0.00 0.00 73 1018.2
20260904001529 86 117 0.0 0.0 0.00 0.00 0.00 72 1018.2
20260904001027 87 117 0.0 0.0 0.00 0.00 0.00 69 1018.2
20260904000527 88 117 0.0 0.0 0.00 0.00 0.00 67 1018.1
20260904000023 89 117 0.0 0.0 0.00 0.00 0.00 64 1018.1
20260903235518 90 117 0.0 0.0 0.00 0.00 0.00 61 1018.2
20260903235014 91 117 0.0 0.0 0.00 0.00 0.00 59 1018.1
20260903234509 92 117 0.0 0.0 0.00 0.00 0.00 57 1017.9
20260903234005 93 116 0.0 1.0 0.00 0.00 0.00 55 1017.9
20260903233501 95 132 0.0 0.0 0.00 0.00 0.00 52 1018.1
20260903232955 96 119 0.0 1.0 0.00 0.00 0.00 52 1018.0
20260903232451 97 136 0.0 1.0 0.00 0.00 0.00 46 1018.0
20260903231950 98 144 1.0 2.0 0.00 0.00 0.00 45 1018.0
20260903231445 98 124 0.0 2.0 0.00 0.00 0.00 44 1017.9
20260903230940 99 156 0.0 0.0 0.00 0.00 0.00 44 1017.9
20260903230436 98 154 0.0 2.0 0.00 0.00 0.00 43 1017.9
20260903225932 98 199 1.0 3.0 0.00 0.00 0.00 43 1017.8
20260903225427 99 192 1.0 5.0 0.00 0.00 0.00 42 1017.8
20260903224923 100 189 1.0 2.0 0.00 0.00 0.00 42 1018.0
20260903224419 100 177 0.0 3.0 0.00 0.00 0.00 41 1017.9
20260903223915 100 245 2.0 3.0 0.00 0.00 0.00 41 1017.8
20260903223414 100 240 2.0 3.0 0.00 0.00 0.00 41 1017.7
20260903222913 101 105 1.0 2.0 0.00 0.00 0.00 40 1018.0
20260903222409 100 191 2.0 2.0 0.00 0.00 0.00 40 1017.8
20260903221903 100 353 2.0 2.0 0.00 0.00 0.00 41 1017.9
20260903221401 100 261 1.0 2.0 0.00 0.00 0.00 40 1017.9
20260903220900 100 164 1.0 2.0 0.00 0.00 0.00 40 1017.9
20260903220349 101 319 2.0 7.0 0.00 0.00 0.00 40 1017.7
20260903215847 101 141 0.0 1.0 0.00 0.00 0.00 39 1018.0
20260903215343 101 185 0.0 2.0 0.00 0.00 0.00 40 1018.0
20260903214841 101 177 2.0 5.0 0.00 0.00 0.00 39 1017.9
20260903214332 100 282 2.0 2.0 0.00 0.00 0.00 40 1017.9
20260903213826 101 117 3.0 3.0 0.00 0.00 0.00 40 1018.0
20260903213321 100 226 3.0 3.0 0.00 0.00 0.00 41 1017.9
20260903212817 101 122 2.0 3.0 0.00 0.00 0.00 40 1018.2
20260903212314 100 250 1.0 2.0 0.00 0.00 0.00 42 1018.1
20260903211813 99 271 2.0 5.0 0.00 0.00 0.00 43 1018.1
20260903211309 101 324 5.0 6.0 0.00 0.00 0.00 42 1018.1
20260903210805 101 213 2.0 2.0 0.00 0.00 0.00 41 1018.0
20260903210300 100 163 1.0 3.0 0.00 0.00 0.00 42 1018.3
20260903205800 100 186 1.0 6.0 0.00 0.00 0.00 43 1018.3
20260903205259 101 274 3.0 3.0 0.00 0.00 0.00 41 1018.4
20260903204800 101 165 1.0 5.0 0.00 0.00 0.00 40 1018.4
20260903204256 102 200 3.0 5.0 0.00 0.00 0.00 41 1018.4
20260903203751 101 159 1.0 2.0 0.00 0.00 0.00 43 1018.5
20260903203247 99 122 3.0 6.0 0.00 0.00 0.00 45 1018.6
20260903202745 99 138 1.0 2.0 0.00 0.00 0.00 45 1018.8
20260903202242 100 227 1.0 3.0 0.00 0.00 0.00 44 1018.7
20260903201741 101 132 3.0 6.0 0.00 0.00 0.00 42 1018.5
20260903201237 100 123 1.0 3.0 0.00 0.00 0.00 44 1018.7
20260903200735 101 155 2.0 6.0 0.00 0.00 0.00 43 1018.6
20260903200231 100 150 2.0 9.0 0.00 0.00 0.00 45 1018.8
20260903195726 101 134 1.0 7.0 0.00 0.00 0.00 43 1019.0
20260903195223 101 163 1.0 7.0 0.00 0.00 0.00 43 1018.8
20260903194722 100 231 2.0 5.0 0.00 0.00 0.00 43 1018.9
20260903194218 100 243 3.0 5.0 0.00 0.00 0.00 43 1018.8
20260903193713 101 145 2.0 3.0 0.00 0.00 0.00 43 1019.0
20260903193208 100 141 3.0 6.0 0.00 0.00 0.00 44 1019.1
20260903192704 101 158 0.0 3.0 0.00 0.00 0.00 45 1019.2
20260903192200 100 215 2.0 3.0 0.00 0.00 0.00 44 1019.2
20260903191656 99 188 3.0 8.0 0.00 0.00 0.00 45 1019.2
20260903191155 99 200 1.0 5.0 0.00 0.00 0.00 45 1019.3
20260903190650 100 336 3.0 5.0 0.00 0.00 0.00 45 1019.2
20260903190145 98 129 0.0 1.0 0.00 0.00 0.00 45 1019.4
20260903185640 98 247 2.0 3.0 0.00 0.00 0.00 46 1019.4
20260903185135 98 127 2.0 2.0 0.00 0.00 0.00 45 1019.4
20260903184632 99 199 2.0 5.0 0.00 0.00 0.00 44 1019.4
20260903184128 100 187 1.0 6.0 0.00 0.00 0.00 45 1019.4
20260903183626 99 112 1.0 6.0 0.00 0.00 0.00 46 1019.4
20260903183121 100 128 3.0 7.0 0.00 0.00 0.00 45 1019.6
20260903182620 100 131 3.0 8.0 0.00 0.00 0.00 45 1019.6
20260903182117 100 11 2.0 3.0 0.00 0.00 0.00 43 1019.8
20260903181614 101 291 4.0 5.0 0.00 0.00 0.00 43 1019.6
20260903181109 98 134 0.0 5.0 0.00 0.00 0.00 47 1019.8
20260903180604 99 138 3.0 5.0 0.00 0.00 0.00 46 1019.8
20260903180059 101 149 3.0 3.0 0.00 0.00 0.00 43 1019.9
20260903175558 100 39 1.0 6.0 0.00 0.00 0.00 45 1019.8
20260903175057 100 160 1.0 5.0 0.00 0.00 0.00 45 1019.9
20260903174552 100 162 0.0 2.0 0.00 0.00 0.00 46 1020.0
20260903174047 99 314 3.0 6.0 0.00 0.00 0.00 45 1020.1
20260903173542 99 69 2.0 5.0 0.00 0.00 0.00 47 1020.1
20260903173038 100 55 2.0 5.0 0.00 0.00 0.00 45 1020.2
20260903172533 100 146 1.0 3.0 0.00 0.00 0.00 45 1019.9
20260903172028 99 179 1.0 2.0 0.00 0.00 0.00 45 1020.2
20260903171523 99 220 3.0 7.0 0.00 0.00 0.00 46 1020.2
20260903171018 100 259 5.0 8.0 0.00 0.00 0.00 46 1020.2
20260903170511 98 151 2.0 3.0 0.00 0.00 0.00 46 1020.2
20260903170007 99 187 2.0 5.0 0.00 0.00 0.00 46 1020.4
20260903165505 99 36 3.0 5.0 0.00 0.00 0.00 46 1020.1
20260903165001 100 145 4.0 9.0 0.00 0.00 0.00 46 1020.4
20260903164455 99 334 1.0 5.0 0.00 0.00 0.00 47 1020.4
20260903163955 99 13 5.0 7.0 0.00 0.00 0.00 46 1020.6
20260903163451 100 348 3.0 6.0 0.00 0.00 0.00 46 1020.5
20260903162946 98 178 2.0 3.0 0.00 0.00 0.00 48 1020.6
20260903162437 98 165 0.0 5.0 0.00 0.00 0.00 48 1020.8
20260903161933 98 26 2.0 5.0 0.00 0.00 0.00 47 1020.8
20260903161428 98 201 2.0 2.0 0.00 0.00 0.00 47 1020.7
20260903160924 98 178 3.0 5.0 0.00 0.00 0.00 47 1020.7
20260903160423 98 348 4.0 9.0 0.00 0.00 0.00 48 1020.7
20260903155921 98 85 2.0 6.0 0.00 0.00 0.00 49 1020.6
20260903155417 98 303 5.0 7.0 0.00 0.00 0.00 49 1020.7
20260903154913 98 290 2.0 3.0 0.00 0.00 0.00 49 1020.9
20260903154408 97 128 0.0 5.0 0.00 0.00 0.00 53 1020.8
20260903153903 97 141 0.0 1.0 0.00 0.00 0.00 54 1020.8
20260903153358 97 164 2.0 5.0 0.00 0.00 0.00 55 1020.8
20260903152855 96 186 1.0 3.0 0.00 0.00 0.00 56 1020.8
20260903152350 94 133 0.0 2.0 0.00 0.00 0.00 58 1020.9
20260903151846 95 282 3.0 5.0 0.00 0.00 0.00 57 1020.9
20260903151341 95 122 1.0 3.0 0.00 0.00 0.00 57 1020.8
20260903150840 95 119 0.0 1.0 0.00 0.00 0.00 57 1020.8
20260903150335 93 238 2.0 3.0 0.00 0.00 0.00 59 1020.9
20260903145830 93 135 0.0 3.0 0.00 0.00 0.00 62 1020.8
20260903145325 94 125 0.0 2.0 0.00 0.00 0.00 61 1021.0
20260903144824 93 131 0.0 1.0 0.00 0.00 0.00 60 1020.9
20260903144320 93 140 0.0 1.0 0.00 0.00 0.00 60 1021.0
20260903143815 93 143 1.0 2.0 0.00 0.00 0.00 62 1021.0
20260903143312 92 116 0.0 2.0 0.00 0.00 0.00 62 1021.1
20260903142808 92 157 1.0 1.0 0.00 0.00 0.00 63 1021.1
20260903142306 91 164 1.0 1.0 0.00 0.00 0.00 64 1021.0
20260903141759 90 269 3.0 3.0 0.00 0.00 0.00 66 1021.2
20260903141255 89 168 1.0 2.0 0.00 0.00 0.00 69 1021.2
20260903140754 87 129 0.0 2.0 0.00 0.00 0.00 73 1021.0
20260903140249 87 139 0.0 2.0 0.00 0.00 0.00 72 1021.1
20260903135745 87 139 0.0 1.0 0.00 0.00 0.00 74 1021.1
20260903135240 86 141 1.0 2.0 0.00 0.00 0.00 75 1021.1
20260903134739 86 132 2.0 2.0 0.00 0.00 0.00 76 1021.2
20260903134235 86 143 0.0 0.0 0.00 0.00 0.00 76 1021.2
20260903133732 84 130 0.0 1.0 0.00 0.00 0.00 79 1021.2
20260903133229 83 132 0.0 1.0 0.00 0.00 0.00 81 1021.3
20260903132724 82 127 1.0 2.0 0.00 0.00 0.00 83 1021.4
20260903132224 80 138 2.0 2.0 0.00 0.00 0.00 87 1021.4
20260903131718 78 143 0.0 1.0 0.00 0.00 0.00 93 1021.5
20260903131213 76 138 1.0 1.0 0.00 0.00 0.00 99 1021.3
20260903130708 75 122 0.0 1.0 0.00 0.00 0.00 99 1021.3
20260903130202 75 120 0.0 0.0 0.00 0.00 0.00 99 1021.6
20260903125701 75 127 0.0 0.0 0.00 0.00 0.00 99 1021.4
20260903125156 75 126 0.0 0.0 0.00 0.00 0.00 99 1021.5
20260903124655 75 121 0.0 0.0 0.00 0.00 0.00 99 1021.6
20260903124150 75 120 0.0 0.0 0.00 0.00 0.00 99 1021.6
20260903123649 74 120 0.0 0.0 0.00 0.00 0.00 99 1021.4
20260903123148 73 119 0.0 0.0 0.00 0.00 0.00 99 1021.6
20260903122648 73 120 0.0 0.0 0.00 0.00 0.00 99 1021.7
20260903122142 73 118 0.0 0.0 0.00 0.00 0.00 99 1021.8
20260903121641 72 118 0.0 0.0 0.00 0.00 0.00 99 1021.6
20260903121138 72 118 0.0 0.0 0.00 0.00 0.00 99 1021.5
20260903120636 72 118 0.0 0.0 0.00 0.00 0.00 99 1021.4
20260903120131 72 118 0.0 0.0 0.00 0.00 0.00 99 1021.5
20260903115629 72 118 0.0 0.0 0.00 0.00 0.00 99 1021.5
20260903115125 71 118 0.0 0.0 0.00 0.00 0.00 99 1021.4
20260903114620 71 118 0.0 0.0 0.00 0.00 0.00 99 1021.5
20260903114115 71 118 0.0 0.0 0.00 0.00 0.00 99 1021.4
20260903113610 71 119 0.0 0.0 0.00 0.00 0.00 99 1021.2
20260903113106 71 119 0.0 0.0 0.00 0.00 0.00 99 1021.3
20260903112557 71 118 0.0 0.0 0.00 0.00 0.00 99 1021.1
20260903112057 71 119 0.0 0.0 0.00 0.00 0.00 99 1021.1
20260903111555 71 119 0.0 0.0 0.00 0.00 0.00 99 1021.1
20260903111052 71 119 0.0 0.0 0.00 0.00 0.00 99 1021.1
20260903110548 71 119 0.0 0.0 0.00 0.00 0.00 99 1021.1
20260903110042 71 119 0.0 0.0 0.00 0.00 0.00 99 1021.1
20260903105537 71 119 0.0 0.0 0.00 0.00 0.00 99 1021.0
20260903105032 71 119 0.0 0.0 0.00 0.00 0.00 99 1021.1
20260903104532 71 118 0.0 0.0 0.00 0.00 0.00 99 1021.0
20260903104028 71 118 0.0 0.0 0.00 0.00 0.00 99 1021.0
20260903103523 71 118 0.0 0.0 0.00 0.00 0.00 99 1021.0
20260903103020 71 118 0.0 0.0 0.00 0.00 0.00 99 1021.0
20260903102515 71 118 0.0 0.0 0.00 0.00 0.00 99 1021.0
20260903102014 71 119 0.0 0.0 0.00 0.00 0.00 99 1021.1
20260903101508 71 119 0.0 0.0 0.00 0.00 0.00 99 1020.8
20260903101004 71 119 0.0 0.0 0.00 0.00 0.00 99 1020.8
20260903100458 71 119 0.0 0.0 0.00 0.00 0.00 99 1020.9
20260903095955 72 118 0.0 0.0 0.00 0.00 0.00 99 1020.8
20260903095450 72 117 0.0 0.0 0.00 0.00 0.00 99 1020.8
20260903094945 72 117 0.0 0.0 0.00 0.00 0.00 99 1020.9
20260903094445 72 117 0.0 0.0 0.00 0.00 0.00 99 1020.8
20260903093941 72 117 0.0 0.0 0.00 0.00 0.00 99 1021.0
20260903093436 72 117 0.0 0.0 0.00 0.00 0.00 99 1020.8
20260903092932 72 117 0.0 0.0 0.00 0.00 0.00 99 1020.9
20260903092431 72 117 0.0 0.0 0.00 0.00 0.00 99 1020.8
20260903091930 72 117 0.0 0.0 0.00 0.00 0.00 99 1020.8
20260903091429 72 117 0.0 0.0 0.00 0.00 0.00 99 1020.8
20260903090924 72 117 0.0 0.0 0.00 0.00 0.00 99 1020.8
20260903090420 72 116 0.0 0.0 0.00 0.00 0.00 99 1020.7
20260903085918 72 116 0.0 0.0 0.00 0.00 0.00 99 1020.6
20260903085416 72 116 0.0 0.0 0.00 0.00 0.00 99 1020.6
20260903084916 72 116 0.0 0.0 0.00 0.00 0.00 99 1020.5
20260903084415 72 116 0.0 0.0 0.00 0.00 0.00 99 1020.7
20260903083910 72 116 0.0 0.0 0.00 0.00 0.00 99 1020.4
20260903083407 72 116 0.0 0.0 0.00 0.00 0.00 99 1020.4
20260903082905 72 116 0.0 0.0 0.00 0.00 0.00 99 1020.5
20260903082400 72 118 0.0 0.0 0.00 0.00 0.00 99 1020.5
20260903081855 72 119 0.0 0.0 0.00 0.00 0.00 99 1020.5
20260903081350 72 119 0.0 0.0 0.00 0.00 0.00 99 1020.3
20260903080847 72 119 0.0 0.0 0.00 0.00 0.00 99 1020.4
20260903080344 72 119 0.0 0.0 0.00 0.00 0.00 99 1020.3
20260903075844 72 119 0.0 0.0 0.00 0.00 0.00 99 1020.2
20260903075339 72 119 0.0 0.0 0.00 0.00 0.00 99 1020.4
20260903074838 73 119 0.0 0.0 0.00 0.00 0.00 99 1020.3
20260903074333 73 118 0.0 0.0 0.00 0.00 0.00 99 1020.4
20260903073829 73 119 0.0 0.0 0.00 0.00 0.00 99 1020.3
20260903073324 73 119 0.0 0.0 0.00 0.00 0.00 99 1020.2
20260903072820 73 119 0.0 0.0 0.00 0.00 0.00 99 1020.2
20260903072315 73 119 0.0 0.0 0.00 0.00 0.00 99 1020.2
20260903071812 73 119 0.0 0.0 0.00 0.00 0.00 99 1020.2
20260903071308 73 119 0.0 0.0 0.00 0.00 0.00 99 1020.1
20260903070802 73 119 0.0 0.0 0.00 0.00 0.00 99 1020.1
20260903070257 73 119 0.0 0.0 0.00 0.00 0.00 99 1020.4
20260903065752 73 119 0.0 0.0 0.00 0.00 0.00 99 1020.2
20260903065252 73 119 0.0 0.0 0.00 0.00 0.00 99 1020.2
20260903064751 73 119 0.0 0.0 0.00 0.00 0.00 99 1020.0
20260903064247 73 119 0.0 0.0 0.00 0.00 0.00 99 1020.0
20260903063743 73 119 0.0 0.0 0.00 0.00 0.00 99 1020.0
20260903063237 73 119 0.0 0.0 0.00 0.00 0.00 99 1020.1
20260903062733 73 119 0.0 0.0 0.00 0.00 0.00 99 1020.1
20260903062232 73 119 0.0 0.0 0.00 0.00 0.00 99 1020.0
20260903061729 73 119 0.0 0.0 0.00 0.00 0.00 99 1020.0
20260903061228 73 119 0.0 0.0 0.00 0.00 0.00 99 1020.2
20260903060724 74 119 0.0 0.0 0.00 0.00 0.00 99 1020.2
20260903060223 74 119 0.0 0.0 0.00 0.00 0.00 99 1020.1
20260903055721 74 119 0.0 0.0 0.00 0.00 0.00 99 1020.2
20260903055220 74 119 0.0 0.0 0.00 0.00 0.00 99 1020.2
20260903054715 74 119 0.0 0.0 0.00 0.00 0.00 99 1020.1
20260903054210 74 119 0.0 0.0 0.00 0.00 0.00 99 1020.1
20260903053707 74 119 0.0 0.0 0.00 0.00 0.00 99 1020.1
20260903053201 74 119 0.0 0.0 0.00 0.00 0.00 99 1019.9
20260903052657 74 119 0.0 0.0 0.00 0.00 0.00 99 1020.3
20260903052152 74 119 0.0 0.0 0.00 0.00 0.00 99 1019.9
20260903051647 74 119 0.0 0.0 0.00 0.00 0.00 99 1020.1
20260903051143 74 119 0.0 0.0 0.00 0.00 0.00 99 1020.2